Windom, MN

4:46 AM CDT on May 28, 2017 (GMT -0500)
Windom Municipal

Weather History for KMWM - July, 2013

Change the Weather History Date:

Tuesday, July 9, 2013

  Actual Average Record
Temperature  
Mean Temperature 76 °F -  
Max Temperature 86 °F 84 °F 103 °F (1976)
Min Temperature 66 °F 61 °F 48 °F (1953)
Cooling Degree Days 11    
Growing Degree Days 26 (Base 50)    
Moisture  
Dew Point 67 °F    
Average Humidity 70    
Maximum Humidity 89    
Minimum Humidity 51    
Precipitation  
Precipitation 0.34 in - - ()
Sea Level Pressure  
Sea Level Pressure 29.92 in    
Wind  
Wind Speed 8 mph (West)    
Max Wind Speed 32 mph    
Max Gust Speed 53 mph    
Visibility 10 miles    
Events Rain , Thunderstorm    
Averages and records for this station are not official NWS values.
T = Trace of Precipitation, MM = Missing Value Source: NWS Daily Summary

Daily Weather History Graph

Daily Weather History Graph

Search for Another Location

Airport or City:

Trip Planner

Search our weather history database for the weather conditions in past years. The results will help you decide how hot, cold, wet, or windy it might be!

Date:

Astronomy

Jul. 09, 2013 Rise Set
Actual Time 5:47 AM CDT 9:03 PM CDT
Civil Twilight 5:11 AM CDT 9:39 PM CDT
Nautical Twilight 4:25 AM CDT 10:25 PM CDT
Astronomical Twilight 3:28 AM CDT 11:21 PM CDT
Moon 7:17 AM CDT (7/9) 9:36 PM CDT (7/9)
Length of Visible Light 16h 27m
Length of Day
15h 16m
New Moon, 2% of the Moon is Illuminated
Jul 9
New Moon
Jul 15
First Quarter
Jul 22
Full
Jul 29
Last Quarter
Aug 6
New

Hourly Weather History & Observations

Time (CDT) Temp. Heat Index Dew Point Humidity Pressure Visibility Wind Dir Wind Speed Gust Speed Precip Events Conditions
12:12 AM 75.2 °F - 66.2 °F 73% 29.95 in 10.0 mi East 5.8 mph - N/A   Clear
12:33 AM 75.2 °F - 68.0 °F 78% 29.95 in 10.0 mi East 4.6 mph - N/A   Clear
12:52 AM 73.4 °F - 68.0 °F 83% 29.96 in 10.0 mi ENE 4.6 mph - N/A   Clear
1:12 AM 73.4 °F - 68.0 °F 83% 29.95 in 10.0 mi East 4.6 mph - N/A   Clear
1:33 AM 73.4 °F - 68.0 °F 83% 29.94 in 10.0 mi ENE 4.6 mph - N/A   Clear
1:52 AM 75.2 °F - 68.0 °F 78% 29.94 in 10.0 mi ESE 5.8 mph - N/A   Clear
2:12 AM 73.4 °F - 69.8 °F 88% 29.94 in 10.0 mi SE 5.8 mph - N/A   Clear
2:33 AM 73.4 °F - 69.8 °F 88% 29.93 in 10.0 mi ESE 5.8 mph - N/A   Clear
2:52 AM 73.4 °F - 69.8 °F 88% 29.92 in 10.0 mi SE 4.6 mph - N/A   Clear
3:12 AM 73.4 °F - 69.8 °F 88% 29.90 in 10.0 mi SE 3.5 mph - N/A   Clear
3:33 AM 73.4 °F - 69.8 °F 88% 29.88 in 10.0 mi SE 4.6 mph - N/A   Clear
3:52 AM 75.2 °F - 69.8 °F 83% 29.87 in 10.0 mi SE 4.6 mph - N/A   Clear
4:12 AM 73.4 °F - 69.8 °F 88% 29.88 in 10.0 mi SE 3.5 mph - N/A   Clear
4:33 AM 73.4 °F - 69.8 °F 88% 29.90 in 10.0 mi SE 4.6 mph - N/A   Clear
4:52 AM 73.4 °F - 69.8 °F 88% 29.90 in 10.0 mi SSE 3.5 mph - N/A   Clear
5:12 AM 75.2 °F - 69.8 °F 83% 29.90 in 10.0 mi Calm Calm - N/A   Scattered Clouds
5:33 AM 75.2 °F - 69.8 °F 83% 29.89 in 10.0 mi South 4.6 mph - N/A Thunderstorm Thunderstorm
5:52 AM 75.2 °F - 69.8 °F 83% 29.90 in 10.0 mi South 4.6 mph - N/A Rain , Thunderstorm Light Thunderstorms and Rain
6:12 AM 75.2 °F - 71.6 °F 89% 29.92 in 10.0 mi SW 9.2 mph - N/A   Mostly Cloudy
6:33 AM 66.2 °F - 62.6 °F 88% 29.96 in 3.0 mi WNW 32.2 mph 52.9 mph 0.21 in Rain , Thunderstorm Heavy Thunderstorms and Rain
6:52 AM 66.2 °F - 62.6 °F 88% 29.96 in 10.0 mi WNW 17.3 mph 33.4 mph 0.32 in Rain , Thunderstorm Heavy Thunderstorms and Rain
7:12 AM 66.2 °F - 62.6 °F 88% 29.93 in 10.0 mi WNW 16.1 mph 21.9 mph 0.01 in Rain , Thunderstorm Light Thunderstorms and Rain
7:32 AM 66.2 °F - 62.6 °F 88% 29.89 in 10.0 mi South 6.9 mph 17.3 mph 0.02 in Rain Light Rain
7:52 AM 68.0 °F - 62.6 °F 83% 29.81 in 10.0 mi East 5.8 mph - 0.02 in Rain Light Rain
8:13 AM 71.6 °F - 62.6 °F 73% 29.82 in 10.0 mi WSW 8.1 mph - N/A   Scattered Clouds
8:32 AM 73.4 °F - 62.6 °F 69% 29.83 in 10.0 mi SW 9.2 mph - N/A   Clear
8:52 AM 75.2 °F - 64.4 °F 69% 29.83 in 10.0 mi WSW 8.1 mph - N/A   Clear
9:13 AM 75.2 °F - 64.4 °F 69% 29.84 in 10.0 mi SSW 9.2 mph - N/A   Clear
9:33 AM 77.0 °F - 66.2 °F 69% 29.85 in 10.0 mi SSW 10.4 mph - N/A   Clear
9:52 AM 78.8 °F - 66.2 °F 65% 29.86 in 10.0 mi SW 8.1 mph - N/A   Clear
10:13 AM 80.6 °F 83.2 °F 68.0 °F 65% 29.87 in 10.0 mi SW 11.5 mph - N/A   Clear
10:33 AM 80.6 °F 83.9 °F 69.8 °F 70% 29.89 in 10.0 mi WSW 15.0 mph - N/A   Clear
10:52 AM 82.4 °F 86.3 °F 69.8 °F 66% 29.89 in 10.0 mi WSW 13.8 mph - N/A   Clear
11:13 AM 84.2 °F 88.4 °F 69.8 °F 62% 29.90 in 10.0 mi WSW 15.0 mph - N/A   Clear
11:33 AM 84.2 °F 88.4 °F 69.8 °F 62% 29.90 in 10.0 mi WSW 18.4 mph 21.9 mph N/A   Clear
11:52 AM 84.2 °F 88.4 °F 69.8 °F 62% 29.91 in 10.0 mi West 18.4 mph - N/A   Clear
12:13 PM 86.0 °F 89.4 °F 68.0 °F 55% 29.91 in 10.0 mi West 15.0 mph 20.7 mph N/A   Clear
12:33 PM 86.0 °F 88.2 °F 66.2 °F 51% 29.91 in 10.0 mi West 18.4 mph 23.0 mph N/A   Clear
12:52 PM 86.0 °F 89.4 °F 68.0 °F 55% 29.91 in 10.0 mi West 13.8 mph - N/A   Scattered Clouds
1:13 PM 82.4 °F 84.6 °F 66.2 °F 58% 29.91 in 10.0 mi WNW 11.5 mph 18.4 mph N/A   Mostly Cloudy
1:33 PM 84.2 °F 86.6 °F 66.2 °F 55% 29.91 in 10.0 mi NW 13.8 mph 21.9 mph N/A   Scattered Clouds
1:52 PM 84.2 °F 86.6 °F 66.2 °F 55% 29.91 in 10.0 mi WNW 15.0 mph 19.6 mph N/A   Clear
2:13 PM 84.2 °F 86.6 °F 66.2 °F 55% 29.91 in 10.0 mi West 17.3 mph - N/A   Clear
2:33 PM 84.2 °F 86.6 °F 66.2 °F 55% 29.91 in 10.0 mi West 15.0 mph 20.7 mph N/A   Clear
2:52 PM 84.2 °F 86.6 °F 66.2 °F 55% 29.92 in 10.0 mi West 13.8 mph - N/A   Clear
3:12 PM 86.0 °F 89.4 °F 68.0 °F 55% 29.92 in 10.0 mi West 15.0 mph 20.7 mph N/A   Clear
3:33 PM 86.0 °F 88.2 °F 66.2 °F 51% 29.92 in 10.0 mi WNW 13.8 mph 21.9 mph N/A   Clear
3:52 PM 86.0 °F 88.2 °F 66.2 °F 51% 29.92 in 10.0 mi WNW 13.8 mph 20.7 mph N/A   Clear
4:12 PM 86.0 °F 88.2 °F 66.2 °F 51% 29.93 in 10.0 mi WNW 12.7 mph 21.9 mph N/A   Clear
4:33 PM 84.2 °F 86.6 °F 66.2 °F 55% 29.93 in 10.0 mi WNW 11.5 mph 18.4 mph N/A   Scattered Clouds
4:52 PM 84.2 °F 86.6 °F 66.2 °F 55% 29.93 in 10.0 mi WNW 13.8 mph - N/A   Scattered Clouds
5:12 PM 84.2 °F 86.6 °F 66.2 °F 55% 29.94 in 10.0 mi WNW 17.3 mph - N/A   Scattered Clouds
5:33 PM 84.2 °F 86.6 °F 66.2 °F 55% 29.94 in 10.0 mi WNW 13.8 mph 18.4 mph N/A   Scattered Clouds
5:52 PM 84.2 °F 86.6 °F 66.2 °F 55% 29.94 in 10.0 mi WNW 13.8 mph 18.4 mph N/A   Clear
6:12 PM 82.4 °F 84.6 °F 66.2 °F 58% 29.94 in 10.0 mi NW 10.4 mph 17.3 mph N/A   Clear
6:33 PM 82.4 °F 84.6 °F 66.2 °F 58% 29.94 in 10.0 mi NW 12.7 mph 17.3 mph N/A   Clear
6:52 PM 82.4 °F 84.6 °F 66.2 °F 58% 29.94 in 10.0 mi WNW 11.5 mph - N/A   Clear
7:13 PM 82.4 °F 84.6 °F 66.2 °F 58% 29.94 in 10.0 mi WNW 11.5 mph - N/A   Clear
7:32 PM 82.4 °F 84.6 °F 66.2 °F 58% 29.94 in 10.0 mi NW 9.2 mph - N/A   Clear
7:52 PM 80.6 °F 82.3 °F 64.4 °F 58% 29.95 in 10.0 mi NW 4.6 mph - N/A   Clear
8:13 PM 80.6 °F 82.7 °F 66.2 °F 61% 29.95 in 10.0 mi NW 6.9 mph - N/A   Clear
8:32 PM 77.0 °F - 66.2 °F 69% 29.95 in 10.0 mi Calm Calm - N/A   Clear
8:52 PM 77.0 °F - 66.2 °F 69% 29.96 in 10.0 mi Calm Calm - N/A   Clear
9:13 PM 75.2 °F - 66.2 °F 73% 29.96 in 10.0 mi Calm Calm - N/A   Clear
9:32 PM 73.4 °F - 66.2 °F 78% 29.97 in 10.0 mi Calm Calm - N/A   Clear
9:52 PM 73.4 °F - 66.2 °F 78% 29.98 in 10.0 mi Calm Calm - N/A   Clear
10:13 PM 73.4 °F - 66.2 °F 78% 29.98 in 10.0 mi Calm Calm - N/A   Scattered Clouds
10:32 PM 73.4 °F - 66.2 °F 78% 29.99 in 10.0 mi Calm Calm - N/A   Scattered Clouds
10:52 PM 71.6 °F - 66.2 °F 83% 30.00 in 10.0 mi Calm Calm - N/A   Clear
11:12 PM 71.6 °F - 66.2 °F 83% 30.00 in 10.0 mi Calm Calm - N/A   Clear
11:32 PM 71.6 °F - 64.4 °F 78% 30.00 in 10.0 mi NNW 12.7 mph 16.1 mph N/A   Clear
11:53 PM 71.6 °F - 66.2 °F 83% 30.01 in 10.0 mi Calm Calm - N/A   Clear